User: anonymous   Login
Location: Theydon Bois
(51.6750°N, 0.1050°E)
Time: 02:42:13
(UTC+00:00)
Language:

Cosmos 1680 Rocket - Orbit

View from above orbital plane
View from above orbital plane
View from above satellite
View from above satellite

Ground track
Ground track

The orbit data is extracted from the following two-line orbital elements,

1 16012U 85079B   17347.06285880  .00000144  00000-0  58239-4 0  9998
2 16012  74.0574 166.8894 0014510  22.6022 337.5767 14.36262894689473
Epoch (UTC): 13 December 2017 01:30:31
Eccentricity: 0.0014510
inclination: 74.0574°
perigee height: 760 km
apogee height: 781 km
right ascension of ascending node: 166.8894°
argument of perigee: 22.6022°
revolutions per day: 14.36262894
mean anomaly at epoch: 337.5767°
orbit number at epoch: 68947

The dashed part of the orbit path shows where the satellite is in the earth's shadow,  

DLR